Location: San Antonio
(29.4240°N, 98.4930°W)
Time: 14:37:03
(UTC-05:00)

BlueWalker 3 - Visible Passes

Search period start: 18 May 2026 00:00
Search period end: 28 May 2026 00:00
Orbit: 447 x 457 km, 53.2° (Epoch: 18 May)

Date Brightness Start Highest point End Pass type
(mag) Time Alt. Az. Time Alt. Az. Time Alt. Az.
20 May 4.7 05:56:01 10° N 05:58:40 19° NE 06:01:17 10° E visible
20 May 3.1 21:05:19 10° S 21:07:52 19° SE 21:10:24 10° ENE visible
20 May 3.8 22:41:59 10° WSW 22:45:04 27° NW 22:48:09 10° NNE visible
21 May 5.0 05:19:43 10° N 05:21:44 14° NE 05:23:45 10° ENE visible
21 May 3.1 22:04:51 10° WSW 22:08:11 39° NW 22:11:32 10° NNE visible
22 May 5.3 04:43:53 10° NNE 04:44:46 11° NE 04:45:41 10° NE visible
22 May 2.3 21:27:50 10° SW 21:31:20 59° NW 21:34:51 10° NNE visible
23 May 1.8 05:42:07 10° NW 05:45:40 78° NE 05:49:11 10° SE visible
23 May 1.7 20:50:58 10° SW 20:54:30 89° SE 20:58:03 10° NE visible
24 May 2.6 05:05:22 10° NNW 05:08:49 50° NE 05:12:15 10° ESE visible
24 May 5.2 21:53:52 10° WNW 21:55:19 12° NW 21:56:46 10° NNW visible
25 May 3.4 04:28:41 10° NNW 04:31:56 34° NE 04:35:11 10° ESE visible
25 May 3.4 06:07:02 10° W 06:09:03 15° WSW 06:11:04 10° SSW visible
25 May 4.9 21:16:03 10° W 21:18:20 16° NW 21:20:38 10° N visible
26 May 4.8 03:52:05 10° NNW 03:59:14 - ESE 03:52:08 10° NNW visible
26 May 3.3 05:33:32 18° SSW 05:33:32 18° SSW 05:35:01 10° S visible
